Date,TemperatureHighF,TemperatureAvgF,TemperatureLowF,DewpointHighF,DewpointAvgF,DewpointLowF,HumidityHigh,HumidityAvg,HumidityLow,PressureMaxIn,PressureMinIn,WindSpeedMaxMPH,WindSpeedAvgMPH,GustSpeedMaxMPH,PrecipitationSumIn
2013-1-1,56,42,32,37,32,26,94,69,33,30.31,30.21,20,4,20,0.00
2013-1-2,60,40,27,38,32,25,93,75,37,30.26,30.15,9,2,9,0.00
2013-1-3,61,39,27,40,33,25,95,81,42,30.30,30.19,6,1,6,0.00
2013-1-4,61,42,30,42,36,29,95,81,45,30.31,30.18,7,1,7,0.00
2013-1-5,51,42,33,46,39,31,95,90,75,30.28,30.09,10,1,10,0.48
2013-1-6,56,46,36,45,42,35,95,86,65,30.21,30.09,12,2,12,0.03
2013-1-7,60,44,34,48,40,32,96,87,60,30.27,30.16,6,1,6,0.00
2013-1-8,62,46,38,51,43,37,96,90,65,30.26,30.14,9,1,9,0.01
2013-1-9,50,44,38,47,40,34,96,88,63,30.17,29.98,22,3,22,0.02
2013-1-10,55,41,30,37,33,29,95,76,43,30.20,30.07,10,3,10,0.00
2013-1-11,53,38,28,39,33,26,94,81,53,30.27,30.12,8,1,8,0.00
2013-1-12,53,40,29,34,29,23,93,69,37,30.27,30.15,9,2,9,0.00
2013-1-13,53,38,23,30,21,9,94,57,20,30.29,30.18,21,4,21,0.00
2013-1-14,58,45,31,30,19,11,83,40,19,30.42,30.26,21,7,21,0.00
2013-1-15,54,38,27,35,30,25,93,76,47,30.50,30.41,12,2,12,0.00
2013-1-16,61,40,27,40,33,26,95,79,42,30.47,30.28,8,1,8,0.00
2013-1-17,67,42,25,44,34,24,95,79,35,30.29,30.15,8,2,8,0.01
2013-1-18,69,44,26,42,34,24,95,73,33,30.25,30.14,8,1,8,0.00
2013-1-19,73,47,31,40,32,26,89,62,22,30.26,30.16,10,2,10,0.00
2013-1-20,70,46,29,40,33,25,88,64,27,30.25,30.12,8,2,8,0.00
2013-1-21,69,46,30,41,34,27,90,67,31,30.19,30.10,10,2,10,0.00
2013-1-22,68,48,31,43,36,28,91,68,29,30.13,30.01,7,2,7,0.00
2013-1-23,52,49,45,49,45,39,94,86,74,30.11,29.97,9,2,9,0.44
2013-1-24,64,53,48,55,50,47,94,90,69,30.20,30.08,12,2,12,0.00
2013-1-25,66,56,48,56,51,46,95,86,65,30.21,30.05,10,2,10,0.00
2013-1-26,62,50,42,50,44,39,95,83,44,30.06,29.96,15,2,15,0.01
2013-1-27,58,46,39,37,36,32,85,67,39,30.18,30.10,7,2,7,0.01
2013-1-28,61,47,34,43,38,32,93,73,41,30.29,30.17,12,3,12,0.00
2013-1-29,66,48,36,46,40,34,92,76,46,30.37,30.26,12,2,12,0.00
2013-1-30,67,50,37,49,43,35,94,78,50,30.36,30.26,12,3,12,0.00
2013-1-31,69,48,33,50,42,31,96,81,45,30.32,30.19,10,2,10,0.00
2013-2-1,73,51,36,48,42,34,95,74,34,30.23,30.11,8,2,8,0.01
2013-2-2,64,46,38,50,42,36,94,86,56,30.32,30.22,9,1,9,0.00
2013-2-3,62,48,38,51,44,36,95,88,66,30.27,30.14,10,1,10,0.00
2013-2-4,56,44,37,50,42,36,96,93,80,30.19,30.08,9,1,9,0.01
2013-2-5,64,50,44,50,44,40,95,83,57,30.17,30.04,12,2,12,0.01
2013-2-6,64,47,34,45,40,32,95,79,43,30.21,30.10,9,2,9,0.00
2013-2-7,59,47,37,48,39,31,95,77,37,30.17,30.01,15,4,15,0.06
2013-2-8,59,46,34,40,32,21,94,63,24,30.03,29.94,26,6,26,0.00
2013-2-9,62,50,36,36,27,18,83,45,19,30.11,30.00,17,5,17,0.00
2013-2-10,64,45,28,42,35,26,93,72,37,30.15,30.01,14,2,14,0.00
2013-2-11,69,52,36,38,32,26,88,51,22,30.25,30.09,17,5,17,0.00
2013-2-12,66,47,33,43,38,30,94,74,37,30.38,30.25,12,2,12,0.00
2013-2-13,65,47,32,50,40,30,95,80,53,30.36,30.21,12,2,12,0.00
2013-2-14,75,50,33,50,41,32,95,75,37,30.26,30.15,13,2,13,0.00
2013-2-15,76,54,36,47,40,33,93,66,24,30.27,30.21,12,2,12,0.00
2013-2-16,72,53,40,49,44,38,92,73,38,30.26,30.05,10,2,10,0.00
2013-2-17,66,48,33,48,41,31,95,79,51,30.07,29.96,13,2,13,0.00
2013-2-18,58,45,34,44,40,32,95,81,56,30.04,29.93,12,2,12,0.00
2013-2-19,50,43,34,43,36,31,93,78,50,29.96,29.74,21,4,21,0.19
2013-2-20,64,46,31,40,33,29,93,68,29,30.06,29.86,17,4,17,0.00
2013-2-21,67,48,33,38,33,23,92,62,21,30.18,30.06,22,5,22,0.00
2013-2-22,69,49,34,44,39,31,93,71,31,30.26,30.15,9,2,9,0.00
2013-2-23,62,50,36,42,33,18,95,58,20,30.27,30.16,21,6,21,0.00
2013-2-24,68,53,38,35,26,14,84,38,12,30.28,30.15,26,8,26,0.00
2013-2-25,70,49,34,46,38,30,91,71,33,30.29,30.16,12,3,12,0.00
2013-2-26,72,54,36,39,27,16,89,42,12,30.24,30.13,20,6,20,0.00
2013-2-27,70,51,33,44,36,28,87,61,25,30.36,30.22,10,2,10,0.00
2013-2-28,75,57,45,57,49,42,93,75,46,30.45,30.36,9,2,9,0.00
2013-3-1,76,57,41,55,48,40,95,77,43,30.44,30.24,9,2,9,0.00
2013-3-2,75,59,47,55,51,45,93,75,43,30.26,30.05,9,3,9,0.00
2013-3-3,72,57,45,53,49,42,91,76,45,30.09,29.99,13,3,13,0.00
2013-3-4,63,50,40,51,45,38,93,84,55,30.17,30.04,12,2,12,0.00
2013-3-5,57,46,32,47,40,30,95,82,59,30.08,29.82,17,5,17,0.34
2013-3-6,59,50,39,48,41,36,92,73,46,30.06,29.82,22,6,22,0.28
2013-3-7,58,47,35,42,38,34,95,74,50,30.01,29.88,8,2,8,0.00
2013-3-8,68,50,37,45,39,31,92,71,26,30.04,29.83,14,3,14,0.00
2013-3-9,72,53,37,44,37,23,94,63,18,30.31,30.04,21,5,21,0.00
2013-3-10,71,54,35,47,41,32,93,66,37,30.36,30.23,13,3,13,0.00
2013-3-11,74,54,36,51,43,34,94,70,40,30.27,30.09,12,2,12,0.00
2013-3-12,77,56,40,56,48,38,95,76,46,30.17,30.05,12,2,12,0.00
2013-3-13,83,60,40,58,49,39,95,72,28,30.17,30.05,7,2,7,0.00
2013-3-14,74,59,45,59,52,43,95,78,58,30.16,30.08,9,2,9,0.00
2013-3-15,74,57,44,57,48,41,93,76,48,30.14,30.01,9,2,9,0.00
2013-3-16,78,58,41,56,45,35,95,69,23,30.11,29.99,17,3,17,0.00
2013-3-17,74,57,42,47,42,35,88,61,25,30.16,30.02,15,3,15,0.00
2013-3-18,70,54,40,51,45,38,93,73,45,30.12,30.01,10,3,10,0.00
2013-3-19,66,54,43,50,46,40,94,75,44,30.13,30.07,9,2,9,0.03
2013-3-20,60,53,48,56,50,46,94,91,81,30.13,30.07,10,3,10,0.27
2013-3-21,71,54,39,48,43,37,94,72,33,30.14,30.00,13,3,13,0.00
2013-3-22,70,56,42,43,26,12,88,38,12,30.14,30.03,24,8,24,0.00
2013-3-23,76,58,42,43,32,19,76,40,14,30.16,30.03,12,4,12,0.00
2013-3-24,74,55,38,52,44,36,93,69,34,30.11,29.95,12,3,12,0.00
2013-3-25,65,51,38,50,44,36,95,79,55,30.03,29.93,13,3,13,0.00
2013-3-26,71,55,44,51,45,41,93,73,43,30.02,29.92,12,3,12,0.00
2013-3-27,65,53,42,53,47,40,94,80,61,30.03,29.96,10,2,10,0.00
2013-3-28,66,56,48,55,50,46,92,82,64,30.10,30.02,12,2,12,0.00
2013-3-29,82,61,43,56,50,41,95,71,32,30.11,30.00,13,3,13,0.01
2013-3-30,68,59,54,59,54,51,92,84,66,30.08,29.99,12,3,12,0.12
2013-3-31,69,58,53,56,53,50,94,85,56,30.09,30.01,15,3,15,0.34
2013-4-1,67,57,50,57,53,47,95,85,63,30.16,30.06,14,2,14,0.09
2013-4-2,76,57,46,59,51,45,95,81,52,30.20,30.07,10,2,10,0.00
2013-4-3,79,59,46,58,51,44,95,78,38,30.15,29.97,12,4,12,0.00
2013-4-4,65,57,51,57,53,49,94,88,74,30.12,29.99,13,4,13,0.72
2013-4-5,69,59,52,54,52,49,93,79,56,30.17,30.10,15,4,15,0.00
2013-4-6,72,59,52,58,52,49,91,80,49,30.19,30.10,13,4,13,0.00
2013-4-7,68,57,51,55,50,44,92,77,51,30.18,29.80,17,5,17,0.04
2013-4-8,70,57,45,48,36,12,84,51,12,30.04,29.79,35,11,35,0.08
2013-4-9,77,63,49,45,34,24,67,38,15,30.11,30.03,25,11,25,0.00
2013-4-10,91,71,53,55,48,39,72,46,25,30.17,29.98,17,5,17,0.00
2013-4-11,79,64,50,53,49,44,85,61,32,30.03,29.81,16,5,16,0.00
2013-4-12,80,59,42,56,47,36,94,69,24,29.93,29.80,12,3,12,0.00
2013-4-13,78,59,44,54,48,40,93,69,41,29.90,29.77,12,2,12,0.00
2013-4-14,77,58,44,46,41,34,78,55,28,29.92,29.79,25,7,25,0.00
2013-4-15,66,54,43,45,38,30,89,59,30,29.95,29.82,22,7,22,0.00
2013-4-16,68,57,43,35,26,14,66,35,13,30.18,29.95,26,11,26,0.00
2013-4-17,70,61,51,31,26,16,43,28,13,30.29,30.18,26,10,26,0.00
2013-4-18,82,65,49,44,34,28,64,33,18,30.26,30.15,16,5,16,0.00
2013-4-19,85,64,43,55,46,39,88,57,31,30.24,30.04,14,4,14,0.00
2013-4-20,88,68,49,49,42,30,77,45,14,30.11,29.95,15,5,15,0.00
2013-4-21,90,67,46,53,47,42,90,55,24,30.03,29.91,12,2,12,0.00
2013-4-22,90,72,52,49,39,15,80,39,7,29.96,29.82,17,6,17,0.00
2013-4-23,88,72,54,44,28,15,68,24,7,29.93,29.82,24,10,24,0.00
2013-4-24,73,56,42,55,47,40,93,73,50,29.96,29.81,16,4,16,0.00
2013-4-25,76,58,49,54,48,45,88,72,44,30.13,29.96,12,4,12,0.00
2013-4-26,77,57,44,57,49,42,94,77,48,30.24,30.11,14,3,14,0.00
2013-4-27,82,60,48,60,51,45,93,75,45,30.23,30.05,13,4,13,0.00
2013-4-28,88,66,44,61,53,43,94,68,37,30.09,29.86,13,2,13,0.00
2013-4-29,96,73,51,59,53,48,93,56,24,29.91,29.73,10,3,10,0.00
2013-4-30,86,71,52,52,30,1,87,37,4,29.87,29.77,29,8,29,0.00
2013-5-1,86,76,63,43,20,11,49,13,8,30.08,29.86,29,12,29,0.00
2013-5-2,95,75,50,44,32,15,72,26,9,30.14,30.05,17,5,17,0.00
2013-5-3,96,71,45,48,42,35,77,40,15,30.07,29.78,12,2,12,0.00
2013-5-4,93,69,47,54,43,22,87,50,9,29.79,29.53,21,6,21,0.00
2013-5-5,70,61,55,53,50,48,87,67,46,29.82,29.62,16,4,16,0.00
2013-5-6,74,60,50,57,52,47,90,75,45,29.97,29.82,16,3,16,0.03
2013-5-7,74,64,56,56,52,47,91,69,44,30.03,29.96,16,3,16,0.00
2013-5-8,73,59,51,56,52,48,92,78,55,30.13,30.03,13,4,13,0.00
2013-5-9,76,59,48,57,51,45,92,76,50,30.17,30.04,14,4,14,0.00
2013-5-10,78,61,51,60,53,48,91,76,54,30.18,30.07,16,4,16,0.00
2013-5-11,92,66,49,64,55,47,93,72,38,30.15,30.01,12,3,12,0.00
2013-5-12,88,66,47,62,52,45,94,66,37,30.14,29.99,12,3,12,0.00
2013-5-13,84,65,45,62,54,42,93,70,47,30.08,29.92,14,3,14,0.00
2013-5-14,78,64,50,58,53,47,93,69,46,29.97,29.88,16,4,16,0.00
2013-5-15,80,61,43,52,48,41,92,67,36,30.03,29.94,12,3,12,0.00
2013-5-16,79,63,53,55,50,47,82,66,39,30.01,29.91,15,4,15,0.00
2013-5-17,77,59,42,50,45,38,94,64,30,30.06,29.96,12,3,12,0.00
2013-5-18,84,63,41,53,47,38,93,61,27,30.13,30.01,18,4,18,0.00
2013-5-19,87,70,47,50,43,26,88,44,11,30.12,29.95,18,5,18,0.00
2013-5-20,95,77,54,48,41,33,71,32,14,30.00,29.87,15,6,15,0.00
2013-5-21,78,64,52,49,45,38,83,54,25,29.97,29.86,18,6,18,0.00
2013-5-22,76,58,40,42,34,23,71,44,19,30.03,29.86,21,6,21,0.00
2013-5-23,78,60,41,46,41,37,87,54,26,30.00,29.90,13,3,13,0.00
2013-5-24,80,60,41,47,43,37,88,56,25,30.00,29.89,13,4,13,0.00
2013-5-25,78,58,42,51,46,39,92,66,35,30.02,29.93,16,4,16,0.00
2013-5-26,78,61,44,53,48,42,94,67,37,30.10,30.01,21,4,21,0.00
2013-5-27,69,58,46,57,51,43,93,80,64,30.11,29.99,14,2,14,0.03
2013-5-28,82,65,55,58,55,51,94,72,41,30.00,29.89,14,3,14,0.01
2013-5-29,83,68,56,55,52,46,83,60,35,29.94,29.85,14,4,14,0.00
2013-5-30,88,66,45,52,48,42,92,57,26,29.99,29.88,12,3,12,0.00
2013-5-31,97,71,49,56,49,42,88,53,18,30.02,29.86,12,3,12,0.00
2013-6-1,92,72,50,60,55,47,91,59,32,29.93,29.75,12,3,12,0.00
2013-6-2,86,68,52,60,54,49,90,65,40,29.77,29.64,15,4,15,0.00
2013-6-3,83,64,50,59,53,47,93,70,44,29.86,29.73,14,4,14,0.00
2013-6-4,78,63,49,57,52,46,92,70,44,29.96,29.86,13,4,13,0.00
2013-6-5,77,63,54,59,53,50,87,72,50,30.00,29.87,15,5,15,0.00
2013-6-6,84,64,51,61,54,48,92,73,43,29.96,29.81,14,4,14,0.00
2013-6-7,94,71,52,66,57,49,92,67,37,29.89,29.70,12,3,12,0.00
2013-6-8,95,71,56,66,59,53,92,69,37,29.81,29.67,17,5,17,0.00
2013-6-9,71,62,56,57,54,52,89,76,59,29.87,29.81,17,7,17,0.00
2013-6-10,67,61,55,56,54,51,89,79,64,29.97,29.80,14,4,14,0.00
2013-6-11,82,66,50,60,54,48,94,69,44,29.98,29.86,13,3,13,0.00
2013-6-12,87,67,46,55,48,28,93,57,14,29.97,29.87,20,3,20,0.00
2013-6-13,90,68,44,53,46,40,90,51,20,30.08,29.96,15,3,15,0.00
2013-6-14,94,73,52,55,44,28,84,42,10,29.99,29.79,14,5,14,0.00
2013-6-15,76,62,48,58,53,46,94,75,51,29.98,29.84,21,4,21,0.00
2013-6-16,93,68,45,58,50,43,94,60,26,30.06,29.98,13,3,13,0.00
2013-6-17,86,67,49,56,52,45,89,62,28,30.07,29.96,16,4,16,0.00
2013-6-18,79,64,50,54,49,39,93,62,25,30.01,29.91,22,6,22,0.00
2013-6-19,83,66,48,50,47,43,84,54,29,30.04,29.95,16,4,16,0.00
2013-6-20,88,68,49,52,48,45,85,53,24,30.00,29.88,13,4,13,0.00
2013-6-21,92,68,46,55,50,43,91,57,21,29.98,29.87,17,3,17,0.00
2013-6-22,96,71,49,60,52,42,93,57,17,29.93,29.78,12,3,12,0.00
2013-6-23,73,64,55,61,56,52,90,77,65,29.85,29.79,13,3,13,0.00
2013-6-24,66,61,58,60,57,54,92,86,72,29.92,29.78,12,3,12,0.05
2013-6-25,70,64,59,65,61,57,94,91,82,29.99,29.89,13,4,13,0.33
2013-6-26,63,63,63,61,61,61,93,93,93,29.98,29.98,5,3,5,0.00
2013-6-28,102,88,70,66,62,53,78,48,20,29.91,29.84,12,4,12,0.00
2013-6-29,106,80,58,71,63,56,93,62,28,29.91,29.75,13,3,12,0.00
2013-6-30,96,76,60,67,62,57,92,67,38,29.84,29.72,15,4,15,0.00
2013-7-1,65,60,56,61,57,54,94,90,83,29.83,29.79,4,0,4,0.00
2013-7-2,90,78,65,67,62,59,81,58,42,29.91,29.83,20,6,20,0.00
2013-7-3,95,75,59,68,62,56,91,67,38,29.91,29.73,15,4,15,0.00
2013-7-4,93,77,65,68,63,58,85,64,41,29.79,29.64,15,5,15,0.00
2013-7-5,76,65,56,59,55,50,88,72,55,29.76,29.67,17,6,17,0.00
2013-7-6,76,62,57,60,55,53,89,79,55,29.82,29.73,18,5,18,0.00
2013-7-7,86,66,56,60,56,52,90,72,38,29.86,29.75,20,4,20,0.00
2013-7-8,88,66,48,60,54,46,94,71,32,29.97,29.86,14,3,14,0.00
2013-7-9,97,73,50,62,56,49,95,63,23,30.03,29.89,12,3,12,0.00
2013-7-10,86,67,53,62,56,50,92,69,43,29.98,29.85,16,5,16,0.00
2013-7-11,78,62,50,60,54,48,93,77,50,29.96,29.84,16,4,16,0.00
2013-7-12,81,63,53,61,55,50,91,76,49,29.95,29.83,16,4,16,0.00
2013-7-13,85,66,48,61,55,46,94,72,40,29.97,29.87,13,4,13,0.00
2013-7-14,82,64,48,62,55,46,94,74,49,30.00,29.86,15,4,15,0.00
2013-7-15,78,61,50,59,53,48,93,75,50,29.93,29.79,15,4,15,0.00
2013-7-16,78,63,53,57,54,50,91,73,49,30.01,29.87,12,3,12,0.00
2013-7-17,83,64,49,62,56,47,94,76,49,30.10,29.99,14,4,14,0.00
2013-7-18,87,65,52,63,56,50,94,76,45,30.08,29.90,15,4,15,0.00
2013-7-19,86,66,52,63,57,49,94,75,45,29.95,29.79,15,4,15,0.00
2013-7-20,84,66,57,62,57,54,90,76,47,29.86,29.71,16,5,16,0.00
2013-7-21,81,66,57,61,57,53,90,74,49,29.88,29.75,15,4,15,0.00
2013-7-22,88,68,53,63,57,50,92,71,35,29.96,29.88,16,3,16,0.00
2013-7-23,84,72,63,63,59,56,85,66,40,29.99,29.92,12,4,12,0.00
2013-7-24,90,72,56,63,57,52,91,63,30,29.98,29.86,13,4,13,0.00
2013-7-25,83,68,56,63,56,52,89,67,47,30.01,29.91,18,5,18,0.00
2013-7-26,85,65,53,63,56,50,92,74,46,30.09,29.97,15,4,15,0.00
2013-7-27,81,64,52,62,56,50,93,76,51,30.02,29.83,14,4,14,0.00
2013-7-28,77,62,52,60,54,50,92,79,54,29.88,29.78,16,4,16,0.00
2013-7-29,75,62,53,59,54,50,90,77,55,30.01,29.84,15,3,15,0.00
2013-7-30,80,64,54,62,55,51,90,75,52,30.11,30.00,16,4,16,0.00
2013-7-31,78,63,52,60,54,50,92,73,45,30.09,29.94,14,4,14,0.00
2013-8-1,79,63,46,59,54,44,94,74,48,30.05,29.94,17,4,17,0.00
2013-8-2,83,64,46,60,54,44,94,74,43,29.98,29.86,16,4,16,0.00
2013-8-3,78,63,56,60,56,53,90,77,52,29.99,29.88,14,5,14,0.00
2013-8-4,76,61,53,60,54,50,91,78,55,30.02,29.91,16,4,16,0.00
2013-8-5,79,62,52,60,54,49,90,77,52,30.04,29.90,14,4,14,0.00
2013-8-6,79,62,51,59,53,49,92,75,49,30.05,29.94,16,3,16,0.00
2013-8-7,76,64,57,59,55,52,86,74,54,30.10,30.01,13,5,13,0.00
2013-8-8,82,66,55,59,55,51,89,72,44,30.04,29.90,17,4,17,0.00
2013-8-9,80,63,54,60,54,51,91,76,47,29.99,29.88,15,4,15,0.00
2013-8-10,82,65,54,61,56,51,91,75,46,30.05,29.95,12,4,12,0.00
2013-8-11,81,65,56,62,57,53,93,77,51,30.04,29.90,14,4,14,0.00
2013-8-12,83,64,49,63,55,47,94,75,50,30.01,29.90,13,4,13,0.00
2013-8-13,94,70,51,62,55,47,92,66,23,30.00,29.86,13,3,13,0.00
2013-8-14,87,69,50,61,56,48,93,68,41,29.98,29.85,17,4,17,0.00
2013-8-15,91,71,53,67,60,51,93,72,38,29.95,29.86,12,3,12,0.00
2013-8-16,93,73,62,68,61,48,92,69,24,29.98,29.89,13,4,13,0.00
2013-8-17,81,68,55,64,59,52,92,74,53,29.98,29.82,13,3,13,0.00
2013-8-18,96,74,58,66,61,56,92,68,37,29.90,29.74,12,3,12,0.00
2013-8-19,98,74,62,67,62,57,90,69,36,29.90,29.77,12,3,12,0.00
2013-8-20,84,69,60,64,59,55,88,72,50,29.89,29.78,15,4,15,0.00
2013-8-21,86,67,55,61,57,52,93,71,42,29.93,29.81,13,3,13,0.00
2013-8-22,84,65,52,60,54,49,92,71,40,29.97,29.84,14,3,14,0.00
2013-8-23,80,64,50,62,56,48,93,76,52,29.93,29.77,15,4,15,0.00
2013-8-24,88,67,49,61,56,47,94,70,36,29.88,29.79,17,3,17,0.00
2013-8-25,89,69,56,64,59,53,92,72,38,29.93,29.86,18,3,18,0.00
2013-8-26,88,70,57,62,57,53,91,69,38,30.00,29.86,14,3,14,0.00
2013-8-27,90,68,50,62,55,48,93,68,32,29.90,29.77,13,3,13,0.00
2013-8-28,92,69,52,65,58,50,94,73,39,29.92,29.82,10,3,10,0.00
2013-8-29,92,72,61,66,61,59,93,71,36,30.03,29.92,10,3,10,0.00
2013-8-30,97,74,56,67,60,54,94,66,30,30.03,29.87,12,3,12,0.00
2013-8-31,89,69,52,63,56,50,93,68,33,29.96,29.84,13,4,13,0.00
2013-9-1,86,69,56,61,58,53,90,69,38,29.94,29.83,12,3,12,0.00
2013-9-2,90,71,57,65,60,54,93,71,38,29.94,29.84,13,3,13,0.00
2013-9-3,89,68,51,59,55,49,94,70,27,29.98,29.88,12,2,12,0.00
2013-9-4,90,67,50,61,55,48,94,70,33,30.02,29.88,12,3,12,0.00
2013-9-5,90,68,49,58,54,46,94,67,23,29.99,29.89,12,2,12,0.00
2013-9-6,99,72,48,58,51,43,93,57,16,29.98,29.80,9,2,9,0.00
2013-9-7,100,75,51,59,50,45,84,49,17,29.88,29.76,12,3,12,0.00
2013-9-8,95,71,51,63,57,48,91,65,32,29.88,29.72,12,3,12,0.00
2013-9-9,95,71,52,64,57,50,93,67,33,29.81,29.66,16,4,16,0.00
2013-9-10,79,65,53,63,58,51,94,79,56,29.90,29.73,15,4,15,0.00
2013-9-11,80,68,63,62,59,58,86,75,53,29.99,29.89,15,4,15,0.00
2013-9-12,84,69,59,65,60,56,90,75,49,29.98,29.83,14,4,14,0.00
2013-9-13,83,66,55,64,57,52,93,76,48,29.90,29.71,15,4,15,0.00
2013-9-14,81,64,50,62,56,48,94,77,49,29.82,29.69,14,3,14,0.00
2013-9-15,88,66,51,59,55,49,94,72,34,29.85,29.77,12,3,12,0.00
2013-9-16,85,67,55,63,57,52,94,74,45,29.90,29.74,12,3,12,0.00
2013-9-17,84,67,49,57,53,47,94,65,32,29.87,29.77,18,4,18,0.00
2013-9-18,90,70,52,50,47,34,84,50,16,29.91,29.77,15,3,15,0.00
2013-9-19,92,67,46,56,47,39,88,54,20,29.86,29.71,12,2,12,0.00
2013-9-20,82,63,43,61,52,38,87,69,46,29.83,29.77,15,3,15,0.00
2013-9-21,74,63,53,61,57,50,93,82,51,29.90,29.78,16,4,16,0.28
2013-9-22,78,61,47,56,52,46,95,75,43,30.00,29.89,14,2,14,0.00
2013-9-23,86,66,50,61,55,48,93,71,39,30.03,29.90,14,2,14,0.00
2013-9-24,83,66,50,56,52,48,95,64,33,29.97,29.84,24,5,24,0.00
2013-9-25,76,61,46,49,45,38,91,59,29,29.93,29.79,15,5,15,0.00
2013-9-26,79,65,54,44,37,29,65,37,19,30.00,29.84,20,7,20,0.00
2013-9-27,84,67,52,40,36,29,62,34,15,30.09,29.99,20,4,20,0.00
2013-9-28,86,64,44,54,43,33,85,53,17,30.09,29.98,13,3,13,0.00
2013-9-29,77,64,51,62,57,48,94,80,55,30.10,30.03,12,3,12,0.00
2013-9-30,68,68,68,62,62,62,80,80,80,30.04,30.04,4,4,5,0.00
2013-10-1,68,68,68,62,62,62,80,80,80,30.04,30.04,4,4,5,0.00
2013-10-2,83,68,47,62,51,41,92,59,28,30.04,29.90,18,4,18,0.00
2013-10-3,75,63,45,42,34,26,79,40,17,30.08,29.96,29,11,29,0.00
2013-10-4,81,72,64,30,27,24,26,19,12,30.11,30.02,31,12,31,0.00
2013-10-5,89,72,52,40,28,22,53,21,10,30.19,30.09,15,4,15,0.00
2013-10-6,89,65,45,42,36,28,67,40,12,30.13,29.99,12,2,12,0.00
2013-10-7,89,65,45,47,37,25,70,42,11,30.00,29.84,12,2,12,0.00
2013-10-8,79,58,40,50,44,35,86,64,34,29.92,29.70,13,2,13,0.00
2013-10-9,75,56,38,47,42,36,94,64,25,29.76,29.63,22,3,22,0.00
2013-10-10,73,59,46,52,46,37,91,64,39,30.01,29.75,14,3,14,0.00
2013-10-11,75,54,40,52,45,38,94,75,36,30.10,29.96,9,2,9,0.00
2013-10-12,72,53,38,54,45,36,94,77,50,30.02,29.87,15,2,15,0.00
2013-10-13,78,58,40,46,40,32,93,59,19,30.07,29.92,16,4,16,0.00
2013-10-14,83,58,37,45,39,32,90,55,17,30.13,29.99,12,2,12,0.00
2013-10-15,82,59,36,40,32,23,85,45,12,30.06,29.94,20,4,20,0.00
2013-10-16,85,60,38,41,34,29,76,44,16,30.10,30.01,9,2,9,0.00
2013-10-17,87,61,41,41,37,33,77,47,17,30.11,29.94,12,2,12,0.00
2013-10-18,83,59,38,46,40,33,83,54,23,30.08,29.97,12,2,12,0.00
2013-10-19,88,61,40,48,41,34,88,56,19,30.09,29.97,8,2,8,0.00
2013-10-20,82,58,38,53,45,34,89,66,33,30.03,29.88,12,2,12,0.00
2013-10-21,76,55,41,54,48,39,95,79,44,30.02,29.90,10,2,10,0.00
2013-10-22,80,56,41,54,48,40,95,78,40,30.06,29.90,10,2,10,0.00
2013-10-23,76,54,42,55,48,40,95,82,46,30.00,29.88,12,2,9,0.00
2013-10-24,70,52,44,52,47,42,95,84,51,30.10,29.98,10,2,10,0.00
2013-10-25,75,54,39,53,46,38,95,78,45,30.18,30.07,10,2,10,0.01
2013-10-26,85,58,39,50,45,36,95,68,27,30.16,29.99,8,2,8,0.00
2013-10-27,62,47,38,48,43,35,94,85,60,30.02,29.62,16,1,16,0.00
2013-10-28,67,49,34,48,42,32,95,78,42,29.84,29.66,14,3,14,0.00
2013-10-29,68,54,44,48,45,41,92,75,47,30.06,29.84,9,2,9,0.00
2013-10-30,72,52,36,49,43,34,95,74,42,30.17,30.06,10,2,10,0.00
2013-10-31,75,54,36,49,43,33,94,69,39,30.19,30.05,10,2,10,0.00
2013-11-1,82,58,41,48,42,37,91,61,22,30.17,30.01,7,2,7,0.00
2013-11-2,74,56,38,53,44,35,90,68,39,30.03,29.88,12,2,12,0.00
2013-11-3,68,54,40,44,31,15,79,47,14,30.05,29.91,18,5,18,0.00
2013-11-4,71,58,37,36,29,21,79,39,16,30.10,29.92,26,7,26,0.00
2013-11-5,76,63,46,38,34,30,67,37,24,30.23,30.08,18,5,18,0.00
2013-11-6,78,58,44,42,38,35,72,51,24,30.27,30.17,7,2,7,0.00
2013-11-7,79,59,46,43,40,37,74,52,24,30.19,30.05,9,2,9,0.00
2013-11-8,72,52,42,46,40,36,85,65,37,30.09,29.93,6,1,6,0.00
2013-11-9,79,55,37,51,43,33,91,68,26,30.06,29.95,9,2,9,0.00
2013-11-10,69,52,39,52,45,36,93,81,52,30.13,30.04,10,2,10,0.00
2013-11-11,68,51,37,50,44,35,95,79,49,30.19,30.08,7,2,7,0.00
2013-11-12,76,58,46,49,46,40,84,68,38,30.28,30.16,10,2,9,0.00
2013-11-13,80,56,38,55,46,36,93,72,39,30.25,30.09,9,2,9,0.00
2013-11-14,63,50,40,54,47,38,95,89,71,30.11,29.86,10,1,10,0.00
2013-11-15,72,50,34,43,38,31,93,68,25,29.87,29.70,10,2,10,0.00
2013-11-16,69,48,33,49,40,30,93,75,38,29.93,29.77,14,2,14,0.00
2013-11-17,66,48,34,50,43,32,95,83,57,30.09,29.93,8,2,8,0.00
2013-11-18,61,48,34,49,43,33,95,82,59,30.17,30.07,12,2,12,0.00
2013-11-19,57,53,49,55,51,45,94,92,83,30.11,29.94,8,2,8,0.48
2013-11-20,61,57,53,58,55,51,95,93,88,29.94,29.84,9,2,9,0.28
2013-11-21,62,57,50,51,30,12,95,43,16,30.02,29.90,41,14,41,0.01
2013-11-22,73,65,58,14,8,1,17,11,7,30.04,29.90,44,16,44,0.00
2013-11-23,72,59,38,38,24,9,82,32,11,30.12,29.96,24,6,24,0.00
2013-11-24,67,47,32,43,37,29,89,70,37,30.27,30.11,8,2,8,0.00
2013-11-25,67,48,36,45,40,34,94,76,40,30.34,30.25,8,1,8,0.00
2013-11-26,69,49,38,45,40,35,93,73,34,30.29,30.06,5,1,5,0.00
2013-11-27,71,52,40,45,40,35,85,66,37,30.06,29.85,6,1,6,0.00
2013-11-28,73,54,42,45,41,37,86,65,32,30.08,29.88,13,2,13,0.00
2013-11-29,71,52,37,46,42,34,93,72,39,30.23,30.08,9,2,9,0.00
2013-11-30,71,51,40,49,42,37,93,75,43,30.29,30.18,8,2,8,0.01
2013-12-1,71,51,37,49,42,35,94,76,43,30.34,30.21,12,1,12,0.00
2013-12-2,66,51,35,52,44,33,95,80,57,30.24,29.95,12,2,12,0.00
2013-12-3,60,50,42,50,35,19,91,57,33,29.95,29.84,16,4,16,0.00
2013-12-4,53,45,40,21,17,11,43,33,21,30.08,29.95,14,7,14,0.00
2013-12-5,53,41,26,23,18,11,80,44,20,30.17,30.11,10,2,10,0.00
2013-12-6,48,37,23,45,31,19,94,81,47,30.21,29.92,13,2,13,0.53
2013-12-7,49,39,29,42,30,20,94,73,35,30.28,29.92,20,4,20,0.01
2013-12-8,53,36,28,28,23,18,90,62,30,30.33,30.24,20,3,20,0.00
2013-12-9,56,37,23,28,22,15,86,60,22,30.45,30.31,12,3,12,0.00
2013-12-10,56,38,26,31,26,20,86,65,32,30.45,30.22,12,2,12,0.00
2013-12-11,63,41,27,34,30,24,91,70,29,30.26,30.18,9,2,9,0.00
2013-12-12,62,41,26,36,31,24,92,72,35,30.28,30.16,9,2,9,0.00
2013-12-13,62,41,28,40,33,25,94,75,41,30.36,30.25,9,1,9,0.00
2013-12-14,70,44,29,42,35,26,93,74,31,30.42,30.30,10,2,10,0.00
2013-12-15,65,44,28,41,35,26,94,74,38,30.40,30.25,9,1,9,0.00
2013-12-16,71,47,30,42,36,28,93,70,31,30.27,30.12,10,2,10,0.00
2013-12-17,70,47,33,43,37,30,91,71,32,30.20,30.05,5,1,5,0.00
2013-12-18,63,47,36,47,40,33,94,78,43,30.05,29.75,12,2,12,0.00
2013-12-19,61,49,32,40,27,11,94,51,20,29.95,29.72,29,9,29,0.00
2013-12-20,67,53,38,31,16,-9,66,29,5,30.00,29.92,16,5,16,0.00
2013-12-21,69,47,32,47,37,26,91,72,45,30.10,29.97,7,1,7,0.00
2013-12-22,64,46,31,42,37,29,95,75,42,30.31,30.10,13,2,13,0.00
2013-12-23,70,48,33,45,39,31,94,74,38,30.41,30.31,8,2,8,0.00
2013-12-24,70,47,35,46,39,31,93,76,40,30.36,30.21,9,2,9,0.00
2013-12-25,72,46,29,41,34,27,94,68,29,30.32,30.20,7,2,7,0.00
2013-12-26,61,38,29,36,30,25,89,75,38,30.28,30.22,6,1,6,0.00
2013-12-27,62,43,32,37,32,27,85,68,34,30.26,30.14,6,1,6,0.00
2013-12-28,70,50,28,38,30,19,90,55,19,30.17,30.03,17,4,17,0.00
2013-12-29,72,59,37,33,18,7,59,24,8,30.20,30.09,20,5,20,0.00
2013-12-30,66,46,31,36,29,22,77,54,29,30.27,30.19,9,2,9,0.00
2013-12-31,65,46,35,39,34,29,84,66,37,30.28,30.16,9,2,9,0.00
2014-1-1,65,46,30,36,32,26,88,64,31,30.23,30.13,12,2,12,0.00
2014-1-2,69,49,32,40,35,29,88,63,32,30.20,30.07,7,2,7,0.00